Regional Weather Roundup
Issued by NWS

Home | Current Version | Previous Version | Text Only | Print | Product List | Glossary On
Versions: 1 2 3 4 5 6 7 8 9 10 11 12 13 14 15 16 17 18 19 20 21 22 23 24 25 26 27 28 29 30 31 32 33 34 35 36 37 38 39 40 41 42 43 44 45 46 47 48 49 50
000
ASUS45 KSLC 021810
RWRUT

UTAH REGIONAL WEATHER ROUNDUP
NATIONAL WEATHER SERVICE SALT LAKE CITY UT
1100 AM MST FRI DEC 02 2016

UTZ001>011-023>025-021900-

NORTHERN UTAH

CITY           SKY/WX    TMP DP  RH WIND       PRES   REMARKS
BRIGHAM CITY     N/A     34  19  54 SW3       30.26S
HILL AFB       MOSUNNY   27  16  63 E14       30.23R WCI  16
LOGAN          SUNNY     30  19  63 S3        30.27S
OGDEN          SUNNY     30  19  63 CALM      30.24R
SALT LAKE CITY MOSUNNY   33  23  66 N6        30.24S WCI  28
TOOELE VALLEY  SUNNY     27  23  86 S6        30.26S WCI  20
WENDOVER       SUNNY     34  14  44 N9        30.29S WCI  26
HEBER CITY     PTSUNNY   23  14  68 CALM      30.20S
WEST JORDAN    SUNNY     30  27  87 NW18      30.24S WCI  18

$$

UTZ011>015-024>027-021900-

CENTRAL/NORTHEAST UTAH

CITY           SKY/WX    TMP DP  RH WIND       PRES   REMARKS
PROVO AIRPORT  SUNNY     31  21  66 E3        30.24S
MOAB/CANYONLAN PTSUNNY   39  19  44 NW6       30.10S WCI  35
DELTA          SUNNY     32  23  69 NW5       30.22S WCI  27
PRICE          CLOUDY    31  12  45 NE13      30.11S WCI  21
ROOSEVELT      CLOUDY    32  19  59 S6        30.21F WCI  26
VERNAL         CLOUDY    30  15  53 S5        30.18R WCI  25

$$

UTZ013>016-019>022-027-021900-

SOUTHERN UTAH

CITY           SKY/WX    TMP DP  RH WIND       PRES   REMARKS
BRYCE CANYON   MOSUNNY   24  12  60 NE18      30.05R WCI  10
CEDAR CITY     LGT SNOW  27  21  78 N10       30.12R WCI  17
MILFORD        CLOUDY    30  22  72 NE20      30.19R WCI  17
ST GEORGE      PTCLDY    45  18  33 CALM      30.13S
HANKSVILLE     CLOUDY    37  16  41 W5        30.15R WCI  34
BLANDING       CLOUDY    37  17  44 NE9       30.09S WCI  31

$$

REGIONAL REPORTS     COLORADO/ARIZONA

CITY           SKY/WX    TMP DP  RH WIND       PRES   REMARKS
CRAIG, CO      CLOUDY    20  15  81 CALM      30.15F
GRAND JUNCTION CLOUDY    35  22  58 SE5       30.11S WCI  31
RIFLE, CO      CLOUDY    30  20  66 CALM      30.10F
MONTROSE, CO   CLOUDY    31  17  56 NW5       30.11F WCI  26
CORTEZ, CO     MOSUNNY   35  19  52 CALM      30.01F
COLORADO CITY    N/A     43  19  39 N12G18    30.09R
PAGE, AZ       MOSUNNY   41  14  33 NW3       30.05S
GRAND CANYON   MOSUNNY   32  16  51 E15G24    30.00R WCI  22
KINGMAN, AZ    PTSUNNY   46  15  28 N20G25    30.01R
FLAGSTAFF, AZ  CLOUDY    30  17  58 E10       29.95R WCI  21

$$

REGIONAL REPORTS    NEVADA/IDAHO/WYOMING

CITY           SKY/WX    TMP DP  RH WIND       PRES   REMARKS
LAS VEGAS, NV  PTSUNNY   50  12  21 N22G29    30.13R
ELY, NY        SUNNY     24  12  60 N17       30.21R WCI  11
ELKO, NV       SUNNY     27  17  66 SE3       30.32R
POCATELLO, ID  CLOUDY    23  20  88 W7        30.33R WCI  15
BURLEY, ID     CLOUDY    27  23  85 W6        30.33R WCI  20
FORT BRIDGER,    N/A     20  13  75 NW3       30.19F
EVANSTON, WY   MOSUNNY   20  14  77 CALM      30.16R
ROCK SPRINGS,  LGT SNOW  17  14  88 W3        30.17S FOG

$$



USA.gov is the U.S. government's official web portal to all federal, state and local government web resources and services.